Date,TemperatureHighF,TemperatureAvgF,TemperatureLowF,DewpointHighF,DewpointAvgF,DewpointLowF,HumidityHigh,HumidityAvg,HumidityLow,PressureMaxIn,PressureMinIn,WindSpeedMaxMPH,WindSpeedAvgMPH,GustSpeedMaxMPH,PrecipitationSumIn
2013-3-1,25,20,16,14,11,8,76,69,61,30.23,30.09,134,8,218,0.00
2013-3-2,24,18,11,17,11,4,83,73,65,30.20,30.10,32,6,52,0.00
2013-3-3,24,13,-2,15,8,-7,86,77,65,30.11,30.05,16,4,16,0.00
2013-3-4,26,15,1,15,7,-4,88,72,48,30.17,30.10,12,2,12,0.00
2013-3-5,31,18,1,20,12,-4,85,75,62,30.17,30.01,146,4,227,0.00
2013-3-6,37,30,25,29,26,19,95,82,70,30.28,30.07,20,6,20,0.00
2013-3-7,28,26,24,23,18,16,89,74,62,30.45,30.27,22,5,22,0.00
2013-3-8,39,26,13,27,20,10,91,78,52,30.52,30.38,9,1,10,0.00
2013-3-9,43,31,16,34,24,13,94,75,49,30.38,29.96,165,2,227,0.93
2013-3-10,40,37,35,40,36,34,100,97,91,29.96,29.79,13,3,218,1.85
2013-3-11,46,38,32,45,37,31,100,98,94,29.82,29.45,14,2,14,0.29
2013-3-12,32,27,22,32,25,20,99,93,86,29.86,29.51,16,3,17,0.03
2013-3-13,28,23,18,20,16,12,92,75,53,30.20,29.85,24,8,29,0.00
2013-3-14,34,27,16,22,18,-25,87,69,54,30.24,29.97,52,3,227,0.26
2013-3-15,33,29,21,31,22,11,95,75,59,29.98,29.85,150,7,150,0.03
2013-3-16,24,20,17,15,12,9,87,72,58,30.01,29.90,16,5,16,0.01
2013-3-17,25,19,12,19,8,2,89,62,43,30.34,30.02,15,4,26,0.01
2013-3-18,40,23,8,28,16,3,94,76,44,30.21,29.49,15,2,17,0.00
2013-3-19,30,25,21,29,22,16,95,87,69,29.83,29.45,21,5,24,0.00
2013-3-20,25,23,20,20,14,9,90,71,57,29.89,29.81,21,5,21,0.05
2013-3-21,26,25,23,23,19,16,91,79,66,29.95,29.81,21,8,24,0.00
2013-3-22,32,27,23,24,22,17,89,79,70,30.06,29.93,15,4,16,0.03
2013-3-23,35,30,26,28,24,21,87,77,60,30.12,30.06,10,3,13,0.09
2013-3-24,34,30,24,27,21,17,89,72,49,30.11,29.85,17,4,18,0.01
2013-3-25,37,32,23,28,24,17,82,75,64,30.01,29.83,19,7,20,0.00
2013-3-26,40,34,31,31,28,23,91,77,54,30.16,30.00,23,6,24,0.00
2013-3-27,41,34,26,30,28,25,96,79,63,30.24,30.13,17,4,18,1.28
2013-3-28,43,35,25,30,26,22,89,71,48,30.29,30.22,11,2,11,0.00
2013-3-29,45,33,19,28,22,17,94,67,39,30.31,30.22,12,1,12,0.00
2013-3-30,49,37,20,38,22,15,92,58,31,30.23,29.81,20,3,23,0.08
2013-3-31,42,37,27,40,34,18,98,89,67,29.81,29.59,30,5,35,0.21